This is the latest recevied weather packets stored in our database for station/object XE2RCS-1. If no packets are shown the sender has not sent any weather packets the latest 10 day(s).
| Time | Temp. | Humidity | Pressure | Rain* | Wind** | Luminosity | Snow |
|---|---|---|---|---|---|---|---|
| 1777389417 | 26.67° C | 28% | 1017 hPa | 0 mm | - | - | - |
| 1777388817 | 27.78° C | 28% | 1017 hPa | 0 mm | - | - | - |
| 1777388216 | 27.78° C | 29% | 1015 hPa | 0 mm | - | - | - |
| 1777387616 | 22.78° C | 40% | 1015 hPa | 0 mm | - | - | - |
| 1777387015 | 23.89° C | 40% | 1015 hPa | 0 mm | - | - | - |
| 1777386414 | 25° C | 40% | 1017 hPa | 0 mm | - | - | - |
| 1777385814 | 26.11° C | 40% | 1017 hPa | 0 mm | - | - | - |
| 1777385213 | 26.11° C | 44% | 1016 hPa | 0 mm | - | - | - |
| 1777384613 | 25.56° C | 46% | 1016 hPa | 0 mm | - | - | - |
| 1777384012 | 25° C | 69% | 1016 hPa | 0 mm | - | - | - |
| 1777383411 | 23.89° C | 85% | 1017 hPa | 0 mm | - | - | - |
| 1777382811 | 23.89° C | 85% | 1017 hPa | 0 mm | - | - | - |
| 1777382210 | 23.89° C | 69% | 1016 hPa | 0 mm | - | - | - |
| 1777381609 | 23.33° C | 70% | 1016 hPa | 0 mm | - | - | - |
| 1777381009 | 23.33° C | 70% | 1015 hPa | 0 mm | - | - | - |
| 1777380408 | 22.78° C | 69% | 1015 hPa | 0 mm | - | - | - |
| 1777379807 | 22.78° C | 69% | 1015 hPa | 0 mm | - | - | - |
| 1777379207 | 22.78° C | 68% | 1015 hPa | 0 mm | - | - | - |
| 1777378606 | 23.33° C | 65% | 1015 hPa | 0 mm | - | - | - |
| 1777378005 | 23.33° C | 52% | 1014 hPa | 0 mm | - | - | - |
| 1777377405 | 23.33° C | 51% | 1014 hPa | 0 mm | - | - | - |
| 1777376804 | 23.33° C | 50% | 1014 hPa | 0 mm | - | - | - |
| 1777376203 | 23.33° C | 10% | - | 0 mm | - | - | - |
| 1777375603 | 23.33° C | 50% | 1014 hPa | 0 mm | - | - | - |
| 1777375002 | 22.78° C | 50% | 1014 hPa | 0 mm | - | - | - |
* Rain latest hour (hover to see other rain measurements)
** Current wind speed in m/s (hover to see current wind gust speed)